User: anonymous   Login
Location: Unspecified
(0.0000°N, 0.0000°E)
Time: 16:43:19
(UTC+00:00)
Language:

AEHF 2 (USA 235) - Orbit

View from above orbital plane
View from above orbital plane
View from above satellite
View from above satellite

Ground track
Ground track

The orbit data is extracted from the following two-line orbital elements,

1 38254U 12019A   17051.46939793 0.00000000  00000-0  00000-0 0    02
2 38254   1.7523 338.5435 0003453 308.1097  51.8630  1.00270000    09
Epoch (UTC): 20 February 2017 11:15:55
Eccentricity: 0.0003453
inclination: 1.7523°
perigee height: 35772 km
apogee height: 35801 km
right ascension of ascending node: 338.5435°
argument of perigee: 308.1097°
revolutions per day: 1.00270000
mean anomaly at epoch: 51.8630°
orbit number at epoch: 0

The dashed part of the orbit path shows where the satellite is in the earth's shadow,  

DLR